Regional Weather Roundup
Issued by NWS

Home | Current Version | Previous Version | Text Only | Print | Product List | Glossary Off
Versions: 1 2 3 4 5 6 7 8 9 10 11 12 13 14 15 16 17 18 19 20 21 22 23 24 25 26 27 28 29 30 31 32 33 34 35 36 37 38 39 40 41 42 43 44 45 46 47 48 49 50

453
ASUS43 KDTX 211701
RWRMI
MICHIGAN HOURLY REGIONAL WEATHER ROUNDUP
NATIONAL WEATHER SERVICE DETROIT/PONTIAC MI
1200 PM EST WED FEB 21 2018

NOTE: "FAIR" INDICATES FEW OR NO CLOUDS BELOW 12,000 FEET WITH NO
SIGNIFICANT WEATHER AND/OR OBSTRUCTION TO VISIBILITY.

MIZ047>049-052>055-059>063-066>070-074>076-081>083-211800-
SOUTHEAST LOWER MICHIGAN

CITY           SKY/WX    TMP DP  RH WIND       PRES   REMARKS
ADRIAN         CLOUDY    37  33  85 N9        30.45R WCI  30
ALMA           CLOUDY    33  30  86 NW8       30.50R WCI  27
ANN ARBOR      CLOUDY    36  34  92 N10       30.43R WCI  28
BAD AXE        CLOUDY    32  30  90 NW13      30.47R WCI  23
CARO           CLOUDY    34  29  82 NW9G17    30.47R WCI  27
DETROIT CITY   CLOUDY    39  32  76 N9        30.44R WCI  33
DETROIT        CLOUDY    38  34  85 N10       30.45R WCI  31
FLINT          CLOUDY    35  30  82 N9        30.46R WCI  28
GROSSE ILE     CLOUDY    38  36  91 N8        30.43R WCI  32
HILLSDALE      CLOUDY    34  32  93 N10       30.44R WCI  26
HOWELL         CLOUDY    35  32  90 NW7       30.45R WCI  29

CITY           SKY/WX    TMP DP  RH WIND       PRES   REMARKS
JACKSON        CLOUDY    36  30  79 NW9       30.45R WCI  29
LAMBERTVILLE   CLOUDY    37  34  89 N6        30.46R WCI  32
LANSING        CLOUDY    34  29  82 NW10      30.48R WCI  26
LAPEER         CLOUDY    37  32  85 N9        30.46R WCI  30
MASON          CLOUDY    36  29  78 N8        30.46R WCI  29
MONROE         CLOUDY    38  34  85 NW8       30.45R WCI  32
MT. CLEMENS    CLOUDY    37  37 100 N15       30.44R WCI  28
PONTIAC        CLOUDY    36  31  82 N8        30.41S WCI  30
PORT HOPE        N/A     32  23  69 N7G17     30.46R WCI  26
PORT HURON     CLOUDY    32  30  93 N6        30.46R WCI  26
TRI CITIES     CLOUDY    33  26  75 N10       30.49R WCI  25
MIDLAND        CLOUDY    33  26  76 NW8       30.49R WCI  26
TROY           PTSUNNY   39  33  81 N6        30.46R WCI  35
SAGINAW HB     PTSUNNY   34  28  80 NW12      30.48R WCI  25
$$
MIZ043>046-050>051-056>058-064>065-071>073-077>080-211800-
SOUTHWEST LOWER MICHIGAN

CITY           SKY/WX    TMP DP  RH WIND       PRES   REMARKS
BATTLE CREEK   CLOUDY    33  29  85 N8        30.49R WCI  26
BENTON HARBOR  CLOUDY    31  25  78 N8        30.54R WCI  23
BIG RAPIDS     CLOUDY    29  21  71 N9        30.50R WCI  21
COLDWATER      CLOUDY    33  33  99 NW10      30.48R WCI  25
FREMONT        CLOUDY    30  20  64 NW10      30.52R WCI  21
HOLLAND        CLOUDY    31  26  82 NW9       30.53R WCI  23
GRAND RAPIDS   CLOUDY    33  27  78 NW9       30.50R WCI  25
IONIA          CLOUDY    33  30  89 NW7       30.48R WCI  26
KALAMAZOO      CLOUDY    33  29  85 NW12      30.50R WCI  24
LUDINGTON      PTSUNNY   27  20  74 NW8G17    30.55R WCI  19
MARSHALL       CLOUDY    33  32  94 N5        30.47R WCI  29
MOUNT PLEASANT CLOUDY    33  26  75 NW6       30.49R WCI  27
MUSKEGON       CLOUDY    32  23  69 NW12      30.54R WCI  23
SOUTH HAVEN    CLOUDY    32  27  83 N8        30.53R WCI  24
$$
MIZ016>042-211800-
NORTHERN LOWER MICHIGAN

CITY           SKY/WX    TMP DP  RH WIND       PRES   REMARKS
ALPENA         CLOUDY    26  18  71 NW14      30.49R WCI  14
BEAVER ISLAND  CLOUDY    24  14  67 W6        30.52R WCI  17
BELLAIRE       CLOUDY    26  19  75 W3        30.53R
CADILLAC       PTSUNNY   26  20  80 NW10      30.47R WCI  15
CHARLEVOIX     CLOUDY    25  17  73 W7        30.56R WCI  17
FRANKFORT      CLOUDY    26  18  72 NW7       30.56R WCI  18
GAYLORD        CLOUDY    22  16  78 W8        30.46R WCI  12
GRAYLING       CLOUDY    25  19  78 NW9       30.47R WCI  15
HARBOR SPRINGS CLOUDY    24  15  68 NW9       30.51R WCI  14
HOUGHTON LAKE  PTSUNNY   26  18  71 NW10      30.48R WCI  16
MANISTEE       CLOUDY    27  18  69 NW9       30.55R WCI  18
OSCODA         PTSUNNY   31  22  67 NW10G16   30.48R WCI  23
PELLSTON       CLOUDY    23  14  68 NW13      30.51R WCI  11
ROGERS CITY    CLOUDY    24  15  69 NW13G20   30.51R WCI  12
TRAVERSE CITY  CLOUDY    27  17  66 NW7       30.52R WCI  19
$$
MIZ007>008-015-211800-
EASTERN UPPER MICHIGAN

CITY           SKY/WX    TMP DP  RH WIND       PRES   REMARKS
KINROSS        FLURRIES  21  15  78 N7        30.48R WCI  12
MACKINAC ISLAN FLURRIES  22  16  75 W13       30.49R WCI  10
NEWBERRY       FLURRIES  21  16  79 W10       30.46R WCI  10
S. S. MARIE    FLURRIES  21  14  74 NW6       30.47R WCI  13
MUNISING         N/A     20  11  68 VRB6      30.51R WCI  12
$$
MIZ004>006-011>014-085-211800-
CENTRAL UPPER MICHIGAN

CITY           SKY/WX    TMP DP  RH WIND       PRES   REMARKS
MANISTIQUE     CLOUDY    21  10  64 NW5       30.51R WCI  14
ESCANABA       CLOUDY    23  14  68 N5        30.54R WCI  17
MENOMINEE      FAIR      23  10  57 NW9       30.56R WCI  13
SAWYER-GWINN   FLURRIES  16   9  73 W3        30.46R
$$
MIZ001>003-009>011-084-211800-
WESTERN UPPER MICHIGAN

CITY           SKY/WX    TMP DP  RH WIND       PRES   REMARKS
IRON MOUNTAIN  FAIR      16   6  65 W7        30.48R WCI   6
HOUGHTON       FLURRIES  15   7  70 W13       30.44R WCI   1
COPPER HARBOR    N/A     18  11  74 NW9       30.46R WCI   7
IRONWOOD       FAIR      15   4  61 W9        30.50R WCI   3
$$

ABBREVIATIONS USED IN REMARKS
   TC - TEMPERATURE IN CELSIUS
  WCI - WIND CHILL INDEX
   HX - HEAT INDEX
  VSB - VISIBILITY





USA.gov is the U.S. government's official web portal to all federal, state and local government web resources and services.